| time (UTC) | temp F | wind direction | speed MPH | gust MPH | rain 1hr in | rain 24hr in | rain mn in | humidity % | barometer mb |
| 20260507064549 | 49 | 331 | 1.0 | 6.0 | 0.00 | 0.00 | 0.00 | 55 | 1015.1 |
| 20260507063041 | 49 | 325 | 4.0 | 9.0 | 0.00 | 0.00 | 0.00 | 54 | 1015.1 |
| 20260507061537 | 49 | 344 | 4.0 | 11.0 | 0.00 | 0.00 | 0.00 | 53 | 1015.1 |
| 20260507060033 | 50 | 311 | 3.0 | 8.0 | 0.00 | 0.00 | 0.00 | 50 | 1015.1 |
| 20260507054528 | 51 | 206 | 1.0 | 4.0 | 0.00 | 0.00 | 0.00 | 54 | 1015.0 |
| 20260507053024 | 48 | 209 | 1.0 | 4.0 | 0.00 | 0.00 | 0.00 | 55 | 1015.1 |
| 20260507051519 | 45 | 199 | 1.0 | 4.0 | 0.00 | 0.00 | 0.00 | 32 | 1014.9 |
| 20260507050029 | 42 | 186 | 0.0 | 1.0 | 0.00 | 0.00 | 0.00 | 13 | 1014.9 |
| 20260507044526 | 41 | 186 | 0.0 | 0.0 | 0.00 | 0.00 | 0.00 | 3 | 1014.8 |
| 20260507043007 | 39 | 186 | 0.0 | 1.0 | 0.00 | 0.00 | 0.00 | 1 | 1014.7 |
| 20260507041503 | 38 | 186 | 0.0 | 0.0 | 0.00 | 0.00 | 0.00 | 1 | 1014.7 |
| 20260507040059 | 36 | 186 | 0.0 | 0.0 | 0.00 | 0.00 | 0.00 | 1 | 1014.7 |
| 20260507034554 | 35 | 186 | 0.0 | 0.0 | 0.00 | 0.00 | 0.00 | 1 | 1014.5 |
| 20260507033050 | 35 | 186 | 0.0 | 2.0 | 0.00 | 0.00 | 0.00 | 1 | 1014.3 |
| 20260507031545 | 35 | 186 | 0.0 | 1.0 | 0.00 | 0.00 | 0.00 | 1 | 1014.2 |
| 20260507030043 | 35 | 186 | 0.0 | 0.0 | 0.00 | 0.00 | 0.00 | 1 | 1014.2 |
| 20260507024537 | 35 | 186 | 0.0 | 1.0 | 0.00 | 0.00 | 0.00 | 1 | 1014.1 |
| 20260507023034 | 36 | 186 | 0.0 | 2.0 | 0.00 | 0.00 | 0.00 | 12 | 1014.0 |
| 20260507021529 | 36 | 186 | 0.0 | 0.0 | 0.00 | 0.00 | 0.00 | 19 | 1013.9 |
| 20260507020024 | 37 | 186 | 0.0 | 2.0 | 0.00 | 0.00 | 0.00 | 34 | 1014.0 |
| 20260507014522 | 38 | 186 | 1.0 | 3.0 | 0.00 | 0.00 | 0.00 | 46 | 1013.8 |
| 20260507013015 | 40 | 186 | 0.0 | 0.0 | 0.00 | 0.00 | 0.00 | 52 | 1013.8 |
| 20260507011511 | 42 | 186 | 0.0 | 3.0 | 0.00 | 0.00 | 0.00 | 55 | 1013.6 |
| 20260507010009 | 43 | 186 | 3.0 | 5.0 | 0.00 | 0.00 | 0.00 | 56 | 1013.6 |
| 20260507004506 | 43 | 186 | 3.0 | 4.0 | 0.00 | 0.00 | 0.00 | 57 | 1013.5 |
| 20260507003004 | 44 | 184 | 3.0 | 7.0 | 0.00 | 0.00 | 0.00 | 57 | 1013.5 |
| 20260507001505 | 44 | 156 | 4.0 | 10.0 | 0.00 | 0.00 | 0.00 | 56 | 1013.5 |
| 20260507000101 | 45 | 188 | 4.0 | 10.0 | 0.00 | 0.00 | 0.00 | 56 | 1013.5 |
| 20260506234559 | 45 | 171 | 5.0 | 10.0 | 0.00 | 0.00 | 0.00 | 56 | 1013.5 |
| 20260506233057 | 45 | 182 | 2.0 | 7.0 | 0.00 | 0.00 | 0.00 | 53 | 1013.4 |
| 20260506231555 | 45 | 149 | 2.0 | 7.0 | 0.00 | 0.00 | 0.00 | 52 | 1013.5 |
| 20260506224550 | 45 | 144 | 2.0 | 5.0 | 0.00 | 0.00 | 0.00 | 52 | 1013.3 |
| 20260506223048 | 45 | 165 | 1.0 | 6.0 | 0.00 | 0.00 | 0.00 | 52 | 1013.3 |
| 20260506221548 | 45 | 186 | 2.0 | 5.0 | 0.00 | 0.00 | 0.00 | 49 | 1013.3 |
| 20260506220047 | 45 | 182 | 1.0 | 5.0 | 0.00 | 0.00 | 0.00 | 48 | 1013.2 |
| 20260506214544 | 45 | 159 | 2.0 | 5.0 | 0.00 | 0.00 | 0.00 | 49 | 1013.2 |
| 20260506213037 | 46 | 146 | 1.0 | 4.0 | 0.00 | 0.00 | 0.00 | 49 | 1013.0 |
| 20260506211533 | 46 | 153 | 1.0 | 7.0 | 0.00 | 0.00 | 0.00 | 51 | 1012.9 |
| 20260506210028 | 46 | 150 | 3.0 | 8.0 | 0.00 | 0.00 | 0.00 | 53 | 1012.9 |
| 20260506204525 | 47 | 143 | 3.0 | 8.0 | 0.00 | 0.00 | 0.00 | 54 | 1012.8 |
| 20260506203019 | 47 | 159 | 4.0 | 7.0 | 0.00 | 0.00 | 0.00 | 54 | 1012.8 |
| 20260506201519 | 47 | 144 | 3.0 | 8.0 | 0.00 | 0.00 | 0.00 | 53 | 1012.7 |
| 20260506200014 | 48 | 125 | 4.0 | 10.0 | 0.00 | 0.00 | 0.00 | 53 | 1012.7 |
| 20260506194506 | 48 | 124 | 3.0 | 8.0 | 0.00 | 0.00 | 0.00 | 55 | 1012.6 |
| 20260506193004 | 49 | 121 | 4.0 | 9.0 | 0.00 | 0.00 | 0.00 | 56 | 1012.5 |
| 20260506191559 | 49 | 165 | 2.0 | 9.0 | 0.00 | 0.00 | 0.00 | 55 | 1012.4 |
| 20260506190054 | 50 | 144 | 3.0 | 8.0 | 0.00 | 0.00 | 0.00 | 55 | 1012.3 |
| 20260506184552 | 50 | 155 | 3.0 | 8.0 | 0.00 | 0.00 | 0.00 | 55 | 1012.0 |
| 20260506183044 | 50 | 132 | 4.0 | 10.0 | 0.00 | 0.00 | 0.00 | 55 | 1011.9 |
| 20260506181540 | 51 | 134 | 5.0 | 11.0 | 0.00 | 0.00 | 0.00 | 55 | 1011.7 |
| 20260506180036 | 51 | 156 | 4.0 | 11.0 | 0.00 | 0.00 | 0.00 | 54 | 1011.7 |
| 20260506174531 | 51 | 121 | 5.0 | 11.0 | 0.00 | 0.00 | 0.00 | 53 | 1011.7 |
| 20260506173027 | 52 | 115 | 5.0 | 13.0 | 0.00 | 0.00 | 0.00 | 54 | 1011.7 |
| 20260506171522 | 52 | 155 | 6.0 | 12.0 | 0.00 | 0.00 | 0.00 | 54 | 1011.6 |
| 20260506170017 | 53 | 116 | 6.0 | 14.0 | 0.00 | 0.00 | 0.00 | 54 | 1011.5 |
| 20260506164517 | 54 | 147 | 6.0 | 12.0 | 0.00 | 0.00 | 0.00 | 52 | 1011.4 |
| 20260506163030 | 55 | 115 | 5.0 | 14.0 | 0.00 | 0.00 | 0.00 | 51 | 1011.4 |
| 20260506161513 | 55 | 146 | 7.0 | 14.0 | 0.00 | 0.00 | 0.00 | 50 | 1011.3 |
| 20260506160013 | 55 | 132 | 4.0 | 12.0 | 0.00 | 0.00 | 0.00 | 49 | 1011.3 |
| 20260506154504 | 56 | 125 | 7.0 | 13.0 | 0.00 | 0.00 | 0.00 | 47 | 1011.2 |
| 20260506153059 | 56 | 133 | 5.0 | 11.0 | 0.00 | 0.00 | 0.00 | 44 | 1011.2 |
| 20260506151555 | 57 | 186 | 4.0 | 12.0 | 0.00 | 0.00 | 0.00 | 43 | 1011.2 |
| 20260506150051 | 57 | 171 | 2.0 | 10.0 | 0.00 | 0.00 | 0.00 | 43 | 1011.1 |
| 20260506144545 | 56 | 205 | 2.0 | 7.0 | 0.00 | 0.00 | 0.00 | 42 | 1011.1 |
| 20260506143042 | 56 | 183 | 3.0 | 8.0 | 0.00 | 0.00 | 0.00 | 43 | 1011.2 |
| 20260506141537 | 56 | 211 | 4.0 | 8.0 | 0.00 | 0.00 | 0.00 | 42 | 1011.2 |
| 20260506140038 | 56 | 155 | 3.0 | 9.0 | 0.00 | 0.00 | 0.00 | 43 | 1011.1 |
| 20260506134529 | 56 | 132 | 2.0 | 7.0 | 0.00 | 0.00 | 0.00 | 41 | 1011.0 |
| 20260506133024 | 56 | 89 | 3.0 | 9.0 | 0.00 | 0.00 | 0.00 | 41 | 1011.0 |
| 20260506131522 | 56 | 105 | 5.0 | 13.0 | 0.00 | 0.00 | 0.00 | 41 | 1011.1 |
| 20260506130016 | 57 | 154 | 4.0 | 10.0 | 0.00 | 0.00 | 0.00 | 40 | 1011.2 |
| 20260506124511 | 57 | 130 | 4.0 | 9.0 | 0.00 | 0.00 | 0.00 | 39 | 1011.2 |
| 20260506123007 | 58 | 128 | 4.0 | 10.0 | 0.00 | 0.00 | 0.00 | 38 | 1011.2 |
| 20260506121502 | 60 | 163 | 6.0 | 12.0 | 0.00 | 0.00 | 0.00 | 35 | 1011.3 |
| 20260506120110 | 59 | 199 | 4.0 | 15.0 | 0.00 | 0.00 | 0.00 | 37 | 1011.4 |
| 20260506114609 | 58 | 177 | 5.0 | 12.0 | 0.00 | 0.00 | 0.00 | 37 | 1011.4 |
| 20260506113050 | 57 | 61 | 5.0 | 12.0 | 0.00 | 0.00 | 0.00 | 36 | 1011.5 |
| 20260506111551 | 56 | 118 | 5.0 | 10.0 | 0.00 | 0.00 | 0.00 | 36 | 1011.7 |
| 20260506110042 | 55 | 48 | 6.0 | 11.0 | 0.00 | 0.00 | 0.00 | 39 | 1011.7 |
| 20260506104541 | 56 | 149 | 5.0 | 12.0 | 0.00 | 0.00 | 0.00 | 35 | 1011.8 |
| 20260506103033 | 56 | 152 | 4.0 | 11.0 | 0.00 | 0.00 | 0.00 | 34 | 1011.9 |
| 20260506101528 | 57 | 103 | 4.0 | 11.0 | 0.00 | 0.00 | 0.00 | 34 | 1012.1 |
| 20260506100024 | 55 | 115 | 3.0 | 10.0 | 0.00 | 0.00 | 0.00 | 35 | 1012.1 |
| 20260506094520 | 54 | 179 | 6.0 | 15.0 | 0.00 | 0.00 | 0.00 | 37 | 1012.2 |
| 20260506093028 | 55 | 76 | 5.0 | 9.0 | 0.00 | 0.00 | 0.00 | 36 | 1012.2 |
| 20260506091516 | 53 | 49 | 5.0 | 11.0 | 0.00 | 0.00 | 0.00 | 37 | 1012.3 |
| 20260506090012 | 53 | 82 | 6.0 | 14.0 | 0.00 | 0.00 | 0.00 | 37 | 1012.3 |
| 20260506084515 | 52 | 80 | 8.0 | 15.0 | 0.00 | 0.00 | 0.00 | 38 | 1012.5 |
| 20260506083007 | 54 | 107 | 5.0 | 10.0 | 0.00 | 0.00 | 0.00 | 37 | 1012.5 |
| 20260506081507 | 51 | 83 | 5.0 | 12.0 | 0.00 | 0.00 | 0.00 | 39 | 1012.6 |
| 20260506080111 | 52 | 86 | 6.0 | 11.0 | 0.00 | 0.00 | 0.00 | 37 | 1012.6 |
| 20260506073101 | 51 | 63 | 4.0 | 15.0 | 0.00 | 0.00 | 0.00 | 37 | 1012.8 |
| 20260506071544 | 50 | 105 | 5.0 | 13.0 | 0.00 | 0.00 | 0.00 | 39 | 1012.8 |